TITAN 3C TRANSTAGE DEB, 43456

Orbit data source: Space-Track

TITAN 3C TRANSTAGE DEB, 43456 is space debris in GEO originally from a launch on Sun, 09 Feb 1969 UTC launched from the Air Force Eastern Test Range (AFETR). Debris objects in space refer to the collection of defunct objects orbiting the Earth. Examples of debris include non-operational satellites, rocket bodies, and fragments generated from explosions, collisions, or faulty payload assembly.

Loading next visibility...
Identifier
43456, 1969-013P
Orbit
GEO
Last TLE update
3 days ago
Origin
Manufacturer
Martin Marietta
Mission
Spacecraft
Bus & Motor
Unknown
Mass
Unknown
Launch date (UTC)
1969-02-09 (56 years ago)
Launch vehicle
Unknown
Launch site
Air Force Eastern Test Range (AFETR)
Object type
Payload
Rocket body
Debris
Shape & HBR
Unknown
Radar Cross Section
RCS unknown

Expand to show TLE details & history

TLE from 3 days ago
0 TITAN 3C TRANSTAGE DEB
1 43456U 69013P   25125.90238253 -.00000104  00000-0  00000+0 0  9993
2 43456   1.1835  28.9836 0928094  53.5670 315.1928  1.02754803 26889
Epoch: 2025-05-05T21:39Z
Definitive object data (Epoch: 2025-05-05T21:39:25.85Z)
Latitude
0.02773°
Longitude
-159.22347°
Altitude
32,554.328 km
Speed
3.297 km/s
True Right ascension
01h 58m 34s
True Declination
0° 01' 40"
Sunlit
Object was in daylight at TLE epoch
Visualization TLE readout
Latitude
0.18773°
Longitude
9.9677°
Altitude
36,524.108 km
Speed
2.996 km/s
Apparent Right ascension
13h 12m 02s
Apparent Declination
-5° 53' 58"
Sunlit
Object is in daylight
Visualization observer readout
Local Sidereal Time
13:41:00
Azimuth
189.988° SSW
Elevation
43.7°
Doppler factor
1
Orbital elements
Apogee altitude
38,955.757 km
Perigee altitude
31,255.583 km
Semi-major axis
41,483.807 km
Eccentricity
0.0928094
Inclination
1.1835°
RAAN
28.9836°
Arg. of periapsis
53.567°
True anomaly
307.0561°
Mean anomaly
315.1928°
Eccentric anomaly
311.19123°
Mean motion
0.25688 °/min
BSTAR
Unknown
Orbital period
1401.45 mins
Loading historical data...
43456 neighbors
Loading maneuver chart data...
Loading SW <> Apogee altitude chart data...

TITAN 3C TRANSTAGE DEB Visibility forecast

Observer location: undefined°, undefined°

Span
Click to sort rows by Start time (UTC) header in descending order
Start Az.
Max El. time (UTC)
Max El. Az.
Max El.
End time (UTC)
End Az.
1440 mins2025-05-09 05:32:19.284Z189.985° SSW2025-05-10 01:23:19.284Z179.64° S35.04°2025-05-10 05:32:19.284Z177.325° S
|